When you browse on this site, cookies collect data to enhance your experience and personalize the content and advertising you see.
Visit our Privacy Policy to learn more. By continuing to use the site, you agree to this use of cookies and data.
  • In Romania
  • List of Countries
  • For 7 days
  • Water Temperature
  • Satellite Maps
  • Weather Map
  • Weather Widgets
  • user-avatar
    Login

    Hourly Weather Klaczyna

    Today, 26 May, Sunday

    Time Temperature Precipitation Wind Pressure Humidity
    00:00 +10°C° 0 mm 2 mps 739 mmHg 92%
    01:00 +9°C° 0 mm 2 mps 739 mmHg 94%
    02:00 +10°C° 0 mm 1 mps 739 mmHg 94%
    03:00 +9°C° 0 mm 1 mps 739 mmHg 94%
    04:00 +9°C° 0 mm 1 mps 739 mmHg 94%
    05:00 +11°C° 0 mm 1 mps 739 mmHg 90%
    06:00 +13°C° 0 mm 1 mps 739 mmHg 86%
    07:00 +14°C° 0 mm 1 mps 739 mmHg 82%
    08:00 +16°C° 0 mm 2 mps 739 mmHg 74%
    09:00 +17°C° 0 mm 2 mps 739 mmHg 67%
    10:00 +19°C° 0 mm 3 mps 739 mmHg 60%
    11:00 +20°C° 0 mm 3 mps 738 mmHg 58%
    12:00 +21°C° 0 mm 3 mps 738 mmHg 56%
    13:00 +22°C° 0 mm 4 mps 738 mmHg 55%
    14:00 +22°C° 0.1 mm 4 mps 737 mmHg 57%
    15:00 +22°C° 0.1 mm 4 mps 737 mmHg 59%
    16:00 +22°C° 0.1 mm 4 mps 737 mmHg 61%
    17:00 +20°C° 0.1 mm 3 mps 736 mmHg 67%
    18:00 +19°C° 0.1 mm 2 mps 736 mmHg 73%
    19:00 +19°C° 0.1 mm 1 mps 736 mmHg 79%
    20:00 +18°C° 0 mm 1 mps 736 mmHg 82%
    21:00 +15°C° 0 mm 2 mps 736 mmHg 85%
    22:00 +14°C° 0 mm 2 mps 736 mmHg 87%
    23:00 +14°C° 0 mm 2 mps 736 mmHg 88%

    Tomorrow, 27 May, Monday

    Time Temperature Precipitation Wind Pressure Humidity
    00:00 +14°C° 0 mm 2 mps 736 mmHg 89%
    01:00 +12°C° 0 mm 3 mps 735 mmHg 89%
    02:00 +12°C° 0 mm 3 mps 735 mmHg 89%
    03:00 +12°C° 0 mm 3 mps 735 mmHg 89%
    04:00 +12°C° 0 mm 3 mps 735 mmHg 90%
    05:00 +14°C° 0 mm 3 mps 735 mmHg 84%
    06:00 +15°C° 0 mm 4 mps 735 mmHg 78%
    07:00 +18°C° 0 mm 4 mps 735 mmHg 73%
    08:00 +19°C° 0 mm 4 mps 735 mmHg 66%
    09:00 +21°C° 0 mm 4 mps 735 mmHg 59%
    10:00 +22°C° 0 mm 4 mps 735 mmHg 52%
    11:00 +23°C° 0 mm 4 mps 735 mmHg 50%
    12:00 +23°C° 0 mm 4 mps 735 mmHg 48%
    13:00 +25°C° 0 mm 3 mps 734 mmHg 47%
    14:00 +25°C° 0 mm 3 mps 734 mmHg 50%
    15:00 +25°C° 0 mm 3 mps 734 mmHg 54%
    16:00 +24°C° 0 mm 3 mps 734 mmHg 57%
    17:00 +23°C° 0.3 mm 2 mps 733 mmHg 67%
    18:00 +20°C° 0.3 mm 2 mps 733 mmHg 76%
    19:00 +20°C° 0.3 mm 1 mps 733 mmHg 86%
    20:00 +19°C° 0.5 mm 1 mps 733 mmHg 87%
    21:00 +18°C° 0.5 mm 1 mps 733 mmHg 89%
    22:00 +16°C° 0.5 mm 1 mps 733 mmHg 91%
    23:00 +16°C° 1.2 mm 1 mps 733 mmHg 92%

    Day after tomorrow, 28 May, Tuesday

    Time Temperature Precipitation Wind Pressure Humidity
    00:00 +16°C° 1.2 mm 1 mps 732 mmHg 93%
    01:00 +16°C° 1.2 mm 1 mps 732 mmHg 95%
    02:00 +15°C° 2.8 mm 1 mps 732 mmHg 96%
    03:00 +15°C° 2.8 mm 1 mps 731 mmHg 96%
    04:00 +15°C° 2.8 mm 1 mps 731 mmHg 97%
    05:00 +15°C° 3.1 mm 1 mps 731 mmHg 97%
    06:00 +15°C° 3.1 mm 2 mps 730 mmHg 98%
    07:00 +14°C° 3.1 mm 2 mps 730 mmHg 98%
    08:00 +13°C° 2.1 mm 3 mps 730 mmHg 97%
    09:00 +13°C° 2.1 mm 3 mps 731 mmHg 97%
    10:00 +13°C° 2.1 mm 4 mps 731 mmHg 97%
    11:00 +12°C° 1.4 mm 4 mps 731 mmHg 96%
    12:00 +12°C° 1.4 mm 4 mps 731 mmHg 96%
    13:00 +10°C° 1.4 mm 5 mps 731 mmHg 95%
    14:00 +11°C° 0.9 mm 4 mps 731 mmHg 95%
    15:00 +11°C° 0.9 mm 4 mps 731 mmHg 95%
    16:00 +10°C° 0.9 mm 4 mps 731 mmHg 95%
    17:00 +10°C° 0.6 mm 4 mps 731 mmHg 95%
    18:00 +10°C° 0.6 mm 3 mps 732 mmHg 95%
    19:00 +10°C° 0.6 mm 3 mps 732 mmHg 95%
    20:00 +10°C° 0 mm 3 mps 732 mmHg 95%
    21:00 +9°C° 0 mm 2 mps 733 mmHg 95%
    22:00 +9°C° 0 mm 2 mps 733 mmHg 95%
    23:00 +9°C° 0 mm 2 mps 733 mmHg 96%

    29 May, Wednesday

    Time Temperature Precipitation Wind Pressure Humidity
    00:00 +9°C° 0 mm 2 mps 734 mmHg 96%
    01:00 +9°C° 0 mm 2 mps 734 mmHg 96%
    02:00 +9°C° 0 mm 2 mps 734 mmHg 97%
    03:00 +10°C° 0 mm 1 mps 734 mmHg 97%
    04:00 +10°C° 0 mm 1 mps 735 mmHg 97%
    05:00 +9°C° 0 mm 2 mps 735 mmHg 96%
    06:00 +10°C° 0 mm 2 mps 735 mmHg 95%
    07:00 +12°C° 0 mm 2 mps 736 mmHg 94%
    08:00 +12°C° 0 mm 2 mps 736 mmHg 88%
    09:00 +12°C° 0 mm 3 mps 736 mmHg 82%
    10:00 +13°C° 0 mm 3 mps 736 mmHg 77%
    11:00 +14°C° 0 mm 3 mps 737 mmHg 73%
    12:00 +14°C° 0 mm 3 mps 737 mmHg 69%
    13:00 +16°C° 0 mm 3 mps 737 mmHg 65%
    14:00 +16°C° 0 mm 3 mps 737 mmHg 66%
    15:00 +16°C° 0 mm 2 mps 737 mmHg 67%
    16:00 +16°C° 0 mm 2 mps 738 mmHg 68%
    17:00 +15°C° 0 mm 2 mps 738 mmHg 73%
    18:00 +14°C° 0 mm 1 mps 738 mmHg 78%
    19:00 +13°C° 0 mm 1 mps 739 mmHg 83%
    20:00 +13°C° 0 mm 1 mps 739 mmHg 84%
    21:00 +12°C° 0 mm 1 mps 739 mmHg 86%
    22:00 +12°C° 0 mm 1 mps 740 mmHg 87%
    23:00 +11°C° 0 mm 1 mps 740 mmHg 89%

    30 May, Thursday

    Time Temperature Precipitation Wind Pressure Humidity
    00:00 +9°C° 0 mm 2 mps 740 mmHg 92%
    01:00 +9°C° 0 mm 2 mps 741 mmHg 94%
    02:00 +8°C° 0 mm 2 mps 741 mmHg 94%
    03:00 +7°C° 0 mm 2 mps 741 mmHg 93%
    04:00 +7°C° 0 mm 2 mps 741 mmHg 93%
    05:00 +7°C° 0.1 mm 2 mps 742 mmHg 90%
    06:00 +8°C° 0.1 mm 3 mps 742 mmHg 87%
    07:00 +8°C° 0.1 mm 3 mps 743 mmHg 85%
    08:00 +8°C° 0.6 mm 3 mps 743 mmHg 85%
    09:00 +8°C° 0.6 mm 3 mps 743 mmHg 85%
    10:00 +8°C° 0.6 mm 2 mps 743 mmHg 85%
    11:00 +10°C° 0.4 mm 2 mps 743 mmHg 82%
    12:00 +12°C° 0.4 mm 1 mps 744 mmHg 78%
    13:00 +13°C° 0.4 mm 1 mps 744 mmHg 74%
    14:00 +14°C° 0.2 mm 1 mps 744 mmHg 73%
    15:00 +14°C° 0.2 mm 1 mps 744 mmHg 72%
    16:00 +15°C° 0.2 mm 2 mps 743 mmHg 70%
    17:00 +14°C° 0.1 mm 1 mps 744 mmHg 74%
    18:00 +14°C° 0.1 mm 1 mps 744 mmHg 78%
    19:00 +12°C° 0.1 mm 0 mps 744 mmHg 81%
    20:00 +12°C° 0 mm 1 mps 744 mmHg 83%
    21:00 +10°C° 0 mm 2 mps 744 mmHg 85%
    22:00 +8°C° 0 mm 2 mps 744 mmHg 88%
    23:00 +8°C° 0 mm 2 mps 744 mmHg 87%

    31 May, Friday

    Time Temperature Precipitation Wind Pressure Humidity
    00:00 +8°C° 0 mm 2 mps 745 mmHg 87%
    01:00 +8°C° 0 mm 3 mps 745 mmHg 86%
    02:00 +8°C° 0 mm 3 mps 745 mmHg 86%
    03:00 +9°C° 0 mm 3 mps 745 mmHg 86%
    04:00 +9°C° 0 mm 3 mps 745 mmHg 86%
    05:00 +10°C° 0 mm 3 mps 745 mmHg 84%
    06:00 +12°C° 0 mm 3 mps 746 mmHg 82%
    07:00 +13°C° 0 mm 3 mps 746 mmHg 80%
    08:00 +14°C° 0 mm 3 mps 746 mmHg 75%
    09:00 +16°C° 0 mm 3 mps 746 mmHg 71%
    10:00 +17°C° 0 mm 3 mps 747 mmHg 66%
    11:00 +17°C° 0.1 mm 3 mps 747 mmHg 65%
    12:00 +18°C° 0.1 mm 3 mps 747 mmHg 63%
    13:00 +18°C° 0.1 mm 3 mps 747 mmHg 62%
    14:00 +18°C° 0.1 mm 2 mps 746 mmHg 63%
    15:00 +18°C° 0.1 mm 2 mps 746 mmHg 64%
    16:00 +18°C° 0.1 mm 2 mps 746 mmHg 65%
    17:00 +18°C° 0.1 mm 2 mps 746 mmHg 70%
    18:00 +18°C° 0.1 mm 1 mps 746 mmHg 75%
    19:00 +16°C° 0.1 mm 1 mps 746 mmHg 80%
    20:00 +15°C° 0 mm 1 mps 746 mmHg 83%
    21:00 +13°C° 0 mm 2 mps 746 mmHg 87%
    22:00 +12°C° 0 mm 2 mps 746 mmHg 91%
    23:00 +12°C° 0 mm 2 mps 746 mmHg 91%
    Show more